Theta_e
353 361 364 364 363 365 365 365 364 363 362 361 361 361 360 360 361 362 362 362 362 360 358 355 353 352 352 353 354 355 356 355 354 354 354 354 354 355 354 350 348 346 350
357 362 363 363 364 364 364 365 363 362 362 361 362 361 360 361 362 361 361 361 360 358 356 353 350 350 351 352 354 354 354 354 354 353 353 352 355 354 352 349 348 348 348
358 362 360 362 363 363 363 363 363 362 362 362 362 361 361 361 361 361 361 361 359 356 353 350 349 348 349 351 353 354 354 354 354 351 348 345 346 353 351 349 349 349 348
359 361 359 362 362 362 362 362 362 362 362 362 361 361 360 361 361 361 361 360 357 354 351 348 345 345 345 347 349 351 353 353 353 352 349 348 348 349 350 349 349 348 348
358 360 361 362 361 361 361 361 361 361 361 361 361 361 360 361 360 360 360 359 355 352 349 346 344 345 344 343 345 346 346 345 342 337 343 345 348 345 350 350 350 349 347
356 359 361 361 361 361 361 360 360 360 360 360 360 360 360 360 359 359 359 358 356 352 348 347 345 345 344 342 344 345 345 343 339 339 343 342 346 346 350 350 350 349 350
355 358 361 361 360 360 360 359 360 360 359 359 360 360 359 359 358 358 358 357 355 353 350 346 346 346 345 344 343 344 343 343 336 339 340 340 342 342 346 352 351 351 351
354 359 360 361 360 359 359 359 358 358 358 358 358 358 358 358 357 357 357 356 354 353 350 348 347 346 345 344 343 342 341 341 338 336 336 338 340 342 348 354 354 354 351
355 358 360 358 359 359 358 358 357 357 357 358 357 357 357 357 357 357 356 355 354 352 350 349 347 346 345 343 343 342 340 341 338 338 335 337 337 338 341 351 355 354 352
353 355 358 358 355 354 356 358 357 357 357 357 357 356 356 356 356 356 354 354 354 352 351 349 347 346 345 343 343 343 341 341 337 335 337 340 338 341 343 348 355 356 354
349 353 356 355 355 354 353 355 356 357 357 356 357 356 354 350 352 353 351 353 354 352 350 349 348 346 345 344 344 344 342 338 336 335 337 344 341 344 345 350 355 357 355
345 349 354 355 355 354 351 354 353 352 352 351 353 354 351 350 351 348 351 352 354 352 351 349 349 348 345 340 339 341 338 340 340 338 339 339 343 345 348 351 352 356 356
343 347 351 356 356 354 351 353 353 353 353 353 353 354 353 350 350 349 347 348 348 350 344 344 344 342 342 343 342 342 341 341 342 342 343 341 343 345 349 353 354 355 357
341 347 351 355 355 354 354 352 352 352 353 352 352 355 352 349 349 348 346 345 348 345 346 345 342 344 346 347 347 345 344 344 343 344 346 344 344 344 347 352 355 356 357
342 344 348 353 355 354 357 353 353 353 353 352 353 354 352 348 348 347 347 345 344 345 343 343 343 344 347 348 347 347 345 346 346 344 345 346 345 345 346 349 353 357 358
345 346 349 351 355 354 355 357 355 355 353 353 352 353 353 351 350 346 346 345 344 344 343 343 343 345 347 348 347 349 348 347 347 347 347 348 344 344 345 347 350 358 358
345 349 348 351 354 355 354 355 356 354 353 353 353 355 353 352 352 349 345 345 344 345 345 345 346 347 346 347 347 349 348 349 348 350 350 348 347 344 344 347 349 355 359
339 348 350 350 351 353 354 355 355 354 353 352 352 353 353 352 353 350 347 346 346 345 343 343 344 344 345 345 347 350 349 348 348 348 347 347 346 346 346 345 348 352 355
330 346 348 350 350 352 353 353 354 356 353 353 354 351 352 353 353 352 349 348 346 344 343 342 342 344 344 347 347 347 347 346 348 346 348 346 346 345 345 347 345 347 351
325 339 350 350 351 352 351 351 350 350 350 352 351 351 352 349 352 353 351 349 345 343 343 342 343 344 345 346 344 345 347 346 346 347 346 344 346 347 352 353 356 352 347
321 328 340 347 350 349 347 345 345 345 346 348 350 351 351 351 352 351 350 350 345 344 345 346 343 344 344 347 344 344 342 344 343 343 346 346 348 351 348 350 351 350 348
320 327 331 340 350 348 346 345 346 345 345 345 347 350 351 350 351 350 350 346 345 342 346 346 345 340 343 345 342 339 333 336 337 342 342 343 343 344 343 346 349 350 349
320 324 328 335 345 349 350 346 346 347 346 342 343 345 347 348 348 349 348 349 348 347 344 348 347 346 343 345 343 347 332 328 332 338 341 339 340 339 346 347 347 345 348
320 323 326 332 340 347 350 348 347 343 340 343 343 345 347 349 348 348 349 348 349 349 349 349 349 347 344 341 340 342 344 340 331 328 338 340 342 342 348 343 344 342 347
317 319 326 329 332 342 348 350 347 347 346 347 346 347 350 349 349 348 350 351 350 346 346 342 336 336 334 330 327 338 341 339 340 333 326 333 339 339 341 342 343 341 347
314 316 323 327 330 335 342 346 348 349 347 344 345 345 346 348 349 350 349 351 353 350 348 343 335 332 333 331 329 336 338 335 334 334 332 332 334 336 340 340 342 344 344
Wind_Speed
12 16 14 11 10 12 15 16 19 20 19 19 19 18 18 17 16 15 14 14 13 12 13 13 12 13 13 14 13 13 11 11 10 10 8 6 4 5 6 5 5 7 6
17 18 16 13 12 13 15 17 19 19 19 19 19 18 18 16 15 14 14 13 12 12 12 12 12 12 13 14 13 13 12 11 9 8 7 6 7 7 5 4 2 7 5
19 17 17 14 12 12 14 17 18 19 18 18 18 18 18 16 14 13 13 11 12 12 11 11 11 11 11 12 13 12 12 10 9 8 5 4 5 4 4 3 3 3 4
18 16 17 16 14 14 13 14 17 19 19 19 18 18 17 16 14 13 12 12 13 12 12 11 11 11 11 11 11 10 10 9 7 7 4 3 1 4 3 4 4 4 3
19 17 16 17 15 14 14 15 16 17 18 19 19 18 17 15 14 14 13 12 12 13 12 11 10 9 8 8 8 8 8 6 6 6 3 1 2 5 7 6 7 6 5
19 18 18 17 16 14 14 13 15 16 17 17 18 19 18 17 15 13 13 13 12 12 12 11 10 9 8 8 6 6 6 6 5 3 1 1 3 3 9 9 7 6 7
17 16 18 17 16 15 15 14 12 14 14 16 15 16 16 16 16 15 14 13 13 12 12 11 10 8 7 7 7 5 5 5 5 3 3 3 2 4 10 9 8 9 8
17 17 16 16 16 15 15 15 13 12 13 14 16 15 15 14 14 13 13 13 12 11 11 10 9 8 8 7 6 5 3 3 5 3 4 4 1 1 6 8 9 10 9
15 16 15 16 16 15 16 16 16 14 13 14 14 15 15 14 13 12 11 11 11 10 9 9 9 8 7 6 6 5 4 4 6 4 5 4 4 4 6 10 11 10 10
14 15 15 14 16 16 15 15 16 16 14 13 13 12 13 13 12 11 9 10 10 10 9 8 8 7 7 6 5 5 5 7 6 5 5 3 5 6 8 8 12 12 11
12 15 16 16 15 16 16 15 15 16 15 13 11 11 10 10 12 13 11 10 10 9 9 8 7 6 6 6 6 7 6 4 5 4 4 2 7 8 8 8 10 12 12
17 18 17 16 16 15 12 14 14 13 12 12 12 12 10 10 10 9 9 10 9 8 8 8 7 7 7 4 4 6 4 4 4 3 3 3 7 8 10 9 10 11 13
11 12 16 16 15 16 13 10 8 8 8 9 13 12 10 8 7 8 6 7 7 9 6 8 7 7 6 5 4 4 4 5 3 3 3 4 8 9 10 10 11 11 13
12 14 15 15 15 13 11 11 11 10 10 9 11 13 8 7 8 7 6 7 6 5 6 6 4 5 6 6 5 5 5 4 3 3 4 6 7 9 10 10 9 10 12
15 15 17 16 15 12 13 11 11 11 10 11 11 13 9 9 8 8 7 7 7 6 6 5 5 5 5 6 5 6 5 5 6 4 4 7 9 9 10 11 11 9 11
15 17 17 19 16 16 15 14 11 11 12 11 12 12 14 10 8 9 6 7 7 6 7 7 6 5 5 5 6 6 6 5 6 6 5 6 8 9 10 11 13 12 13
14 15 18 20 19 18 18 15 12 12 12 11 11 13 13 12 11 9 8 7 7 6 7 6 6 6 6 5 7 6 5 7 6 6 6 6 5 7 10 11 13 13 13
10 13 16 15 20 19 17 15 12 13 12 11 11 10 11 10 12 9 7 7 6 5 6 6 5 6 6 5 5 5 5 6 7 7 7 6 7 5 7 9 11 13 14
13 15 16 18 21 20 17 13 13 13 13 11 11 9 14 14 14 11 8 6 5 5 8 5 6 6 6 6 5 5 5 6 7 6 6 6 5 7 6 3 7 11 13
12 13 15 15 17 17 13 11 11 11 12 11 12 12 14 11 12 12 10 10 8 6 7 6 7 7 7 7 6 6 6 7 5 6 3 4 5 8 7 1 2 3 8
12 12 15 16 17 13 13 14 12 14 13 12 13 17 16 15 18 12 11 10 10 11 9 8 8 7 7 5 7 4 3 5 5 5 1 3 5 6 3 4 3 3 4
12 13 14 18 17 16 13 12 11 11 11 11 11 13 14 16 15 12 9 7 9 7 11 11 8 7 6 5 5 3 2 0 1 4 1 0 2 4 7 3 5 4 8
11 13 14 17 19 19 19 11 9 7 5 9 11 12 13 14 13 14 14 11 9 8 8 9 9 10 6 4 7 4 3 3 0 2 3 3 5 6 7 6 6 3 6
15 11 14 14 16 17 18 14 18 14 13 12 12 12 11 14 14 14 12 12 11 9 9 7 6 3 2 4 2 8 5 4 4 3 3 4 3 4 6 5 4 2 5
17 14 11 13 15 16 16 16 15 15 12 8 9 13 12 12 15 14 13 13 12 10 10 8 7 8 6 3 4 11 8 3 4 6 9 5 3 2 7 7 7 6 5
17 13 12 12 15 16 17 19 18 16 14 11 11 11 11 9 9 13 14 12 10 9 10 8 6 6 10 15 11 18 10 5 4 5 7 9 11 8 7 8 8 7 3
Wind_Direction
160 154 151 156 146 143 140 141 146 144 143 144 145 143 140 136 136 137 137 133 131 128 123 118 116 119 119 118 117 115 114 115 115 112 109 99 110 129 117 109 137 106 101
154 155 152 157 150 145 143 143 144 141 140 144 145 143 136 138 142 142 141 137 133 133 128 123 126 127 129 127 127 129 130 128 124 124 125 122 89 111 118 118 113 98 113
153 153 159 154 152 147 147 143 139 137 140 146 143 139 139 143 145 145 139 138 138 135 132 132 134 135 136 135 138 136 133 136 136 133 137 109 104 144 136 152 142 138 134
151 154 162 157 158 152 150 143 139 140 145 145 142 142 142 146 147 146 143 149 146 143 139 142 145 145 144 144 142 143 145 146 149 150 172 108 110 153 173 182 182 170 178
155 155 159 159 161 157 152 147 145 146 148 147 145 144 146 150 151 149 151 154 152 149 149 152 147 144 146 147 151 151 147 147 157 190 132 62 317 172 200 202 190 192 200
159 159 154 159 160 162 155 155 151 151 151 150 149 150 153 156 157 156 156 157 158 159 160 156 150 148 150 151 149 148 150 156 181 161 165 97 299 167 205 203 210 207 204
161 165 160 158 160 163 160 159 157 153 155 150 154 157 159 162 162 161 161 163 165 168 165 159 153 150 154 155 156 158 159 162 206 185 236 260 296 240 216 207 209 210 210
161 165 161 159 161 162 164 160 159 163 161 162 162 166 166 168 166 166 164 166 170 172 167 164 159 163 168 169 164 164 165 226 199 222 235 240 281 258 227 224 220 217 214
167 168 169 171 164 165 168 167 162 168 173 172 172 172 172 171 167 169 171 173 175 176 176 172 169 173 181 186 186 181 190 215 246 238 244 238 168 239 236 232 222 221 214
176 177 175 177 176 176 176 173 170 168 177 178 177 179 177 173 170 174 173 183 181 183 183 183 179 182 195 208 218 221 221 227 240 241 241 243 242 244 237 237 225 219 216
187 186 186 182 181 183 182 181 175 175 177 175 182 186 179 191 186 181 193 175 189 189 190 191 189 199 209 224 237 244 247 246 249 239 257 236 269 269 262 252 228 227 219
194 194 189 191 186 187 188 184 188 186 189 192 188 197 205 200 197 197 190 194 191 195 199 201 202 210 220 238 223 226 249 264 256 269 265 287 274 278 279 273 259 238 221
209 209 203 192 187 191 194 187 184 188 189 194 193 192 208 211 202 200 197 196 202 194 208 205 207 223 225 241 242 246 262 268 273 269 283 273 277 283 288 285 272 257 228
220 212 213 202 196 195 192 195 190 193 189 194 198 194 196 208 206 209 205 196 199 203 209 220 227 237 237 240 252 260 261 271 275 289 279 255 266 279 283 284 279 259 238
209 210 210 206 201 193 200 193 196 202 197 198 197 196 194 210 216 212 209 201 193 197 210 222 241 254 246 238 244 253 260 270 277 277 283 278 269 263 273 282 283 258 239
220 209 202 206 199 193 202 199 190 190 196 200 202 203 198 206 210 213 211 216 207 211 215 208 212 235 254 266 260 255 265 269 267 268 271 275 239 249 258 265 266 242 233
228 208 206 206 202 195 197 204 204 198 197 201 203 201 205 209 211 220 214 205 219 202 230 244 225 223 225 242 263 271 279 279 272 275 272 278 278 236 249 251 259 250 234
256 232 214 205 210 204 199 197 200 203 202 205 201 203 202 207 219 208 225 236 226 218 232 230 233 251 250 241 261 267 277 281 284 274 274 280 285 281 245 228 259 250 244
251 233 225 208 210 208 204 201 207 203 204 201 201 196 198 201 211 211 209 208 208 217 236 242 253 253 264 253 243 264 270 268 272 271 279 285 268 262 256 187 237 260 257
265 240 230 218 222 210 207 205 206 210 209 203 203 206 201 203 217 214 212 197 187 207 225 230 241 246 253 276 270 258 261 260 254 267 284 293 258 224 217 228 309 268 225
256 244 225 216 211 200 202 203 202 207 204 206 209 203 205 205 208 209 215 220 183 206 212 194 228 243 256 236 273 254 243 253 256 266 328 1 288 255 220 184 137 304 343
254 236 228 225 213 200 202 206 207 209 210 206 205 206 213 215 215 210 210 202 205 193 208 203 179 222 239 211 244 298 217 114 283 231 232 179 274 289 267 210 85 294 357
257 247 239 227 219 208 202 197 198 177 185 191 201 206 205 207 208 211 206 204 201 204 215 211 161 204 213 193 252 263 207 192 1 245 229 198 229 241 261 14 354 342 327
268 248 243 235 223 217 203 196 199 199 194 207 207 203 198 197 200 203 204 205 198 197 203 172 160 119 331 330 298 261 271 197 164 261 224 213 255 304 306 321 299 310 246
286 280 249 232 227 220 209 213 200 207 215 194 199 198 204 204 207 206 206 203 199 201 206 176 135 147 147 274 286 295 241 228 213 233 280 274 248 276 277 272 269 239 205
283 280 267 235 227 213 207 207 211 207 204 192 188 193 200 206 204 210 215 221 220 214 213 206 191 234 236 244 255 240 270 243 243 223 260 282 282 299 273 268 257 251 218